Tracking 26308 objects as of 1-Dec-2022
HD Live streaming from Space Station
objects crossing your sky now

SCOUT X-4 DEB

Track SCOUT X-4 DEB now!
10-day predictions


NORAD ID: 2088
Int'l Code: 1965-093D
Perigee: 659.3 km
Apogee: 772.4 km
Inclination: 59.7 °
Period: 99.0 minutes
Semi major axis: 7086 km
RCS: 0.0298 m2 (small)
Launch date: November 19, 1965
Source: United States (US)
Launch site: WALLOPS ISLAND (WLPIS)

Note: This is SATELLITE DEBRIS
aabbcc
Your satellite tracking list
Your tracking list is empty




NASA's NSSDC Master Catalog

Two Line Element Set (TLE):
1 02088U 65093D   22334.02250426  .00000737  00000-0  19907-3 0  9992
2 02088  59.7205  36.8172 0079789 286.7388  72.4912 14.55209030964943
Source of the keplerian elements: AFSPC